Time,TemperatureF,DewpointF,PressureIn,WindDirection,WindDirectionDegrees,WindSpeedMPH,WindSpeedGustMPH,Humidity,HourlyPrecipIn,Conditions,Clouds,dailyrainin,SoftwareType,DateUTC
2013-03-22 00:02:00,23.9,10.5,30.28,NNE,22,1.0,1.0,56,0.00,,,0.00,Weather View 32 v70,2013-03-22 08:02:00,
2013-03-22 00:07:00,23.9,10.5,30.27,NNE,22,1.0,1.0,56,0.00,,,0.00,Weather View 32 v70,2013-03-22 08:07:00,
2013-03-22 00:12:00,23.9,10.5,30.27,NNE,22,1.0,1.0,56,0.00,,,0.00,Weather View 32 v70,2013-03-22 08:12:00,
2013-03-22 00:17:00,23.7,10.3,30.27,NNE,22,1.0,1.0,56,0.00,,,0.00,Weather View 32 v70,2013-03-22 08:17:00,
2013-03-22 00:22:00,23.9,10.5,30.27,NNE,22,1.0,1.0,56,0.00,,,0.00,Weather View 32 v70,2013-03-22 08:22:00,
2013-03-22 00:27:00,23.9,10.9,30.28,NNE,22,0.0,1.0,57,0.00,,,0.00,Weather View 32 v70,2013-03-22 08:27:00,
2013-03-22 00:32:00,23.5,10.9,30.28,NNE,22,0.0,1.0,58,0.00,,,0.00,Weather View 32 v70,2013-03-22 08:32:00,
2013-03-22 00:37:00,23.4,10.8,30.28,NNE,22,0.0,1.0,58,0.00,,,0.00,Weather View 32 v70,2013-03-22 08:37:00,
2013-03-22 00:42:00,23.4,10.8,30.28,NNE,22,0.0,1.0,58,0.00,,,0.00,Weather View 32 v70,2013-03-22 08:42:00,
2013-03-22 00:47:00,23.5,10.9,30.26,NNE,22,1.0,1.0,58,0.00,,,0.00,Weather View 32 v70,2013-03-22 08:47:00,
2013-03-22 00:52:00,23.5,10.9,30.26,NNE,22,1.0,1.0,58,0.00,,,0.00,Weather View 32 v70,2013-03-22 08:52:00,
2013-03-22 00:57:00,23.5,11.3,30.26,NNE,22,0.0,1.0,59,0.00,,,0.00,Weather View 32 v70,2013-03-22 08:57:00,
2013-03-22 01:02:00,23.4,11.1,30.26,NNE,22,0.0,1.0,59,0.00,,,0.00,Weather View 32 v70,2013-03-22 09:02:00,
2013-03-22 01:07:00,23.4,11.1,30.25,NNE,22,0.0,1.0,59,0.00,,,0.00,Weather View 32 v70,2013-03-22 09:07:00,
2013-03-22 01:12:00,23.2,11.7,30.25,NNE,22,0.0,1.0,61,0.00,,,0.00,Weather View 32 v70,2013-03-22 09:12:00,
2013-03-22 01:17:00,23.2,11.4,30.25,NNE,22,0.0,1.0,60,0.00,,,0.00,Weather View 32 v70,2013-03-22 09:17:00,
2013-03-22 01:22:00,23.2,11.7,30.25,NNE,22,0.0,1.0,61,0.00,,,0.00,Weather View 32 v70,2013-03-22 09:22:00,
2013-03-22 01:27:00,23.2,11.4,30.24,NNE,22,0.0,1.0,60,0.00,,,0.00,Weather View 32 v70,2013-03-22 09:27:00,
2013-03-22 01:32:00,23.2,12.1,30.24,NNE,22,0.0,1.0,62,0.00,,,0.00,Weather View 32 v70,2013-03-22 09:32:00,
2013-03-22 01:37:00,23.2,12.1,30.24,NNE,22,0.0,1.0,62,0.00,,,0.00,Weather View 32 v70,2013-03-22 09:37:00,
2013-03-22 01:42:00,23.2,11.7,30.24,NNE,22,0.0,1.0,61,0.00,,,0.00,Weather View 32 v70,2013-03-22 09:42:00,
2013-03-22 01:47:00,23.5,12.8,30.24,NNE,22,1.0,1.0,63,0.00,,,0.00,Weather View 32 v70,2013-03-22 09:47:00,
2013-03-22 01:52:00,23.5,13.2,30.24,NNE,22,1.0,1.0,64,0.00,,,0.00,Weather View 32 v70,2013-03-22 09:52:00,
2013-03-22 01:57:00,23.9,13.5,30.24,NNE,22,1.0,1.0,64,0.00,,,0.00,Weather View 32 v70,2013-03-22 09:57:00,
2013-03-22 02:02:00,23.9,13.1,30.24,NNE,22,1.0,1.0,63,0.00,,,0.00,Weather View 32 v70,2013-03-22 10:02:00,
2013-03-22 02:07:00,24.3,13.5,30.24,NNE,22,1.0,1.0,63,0.00,,,0.00,Weather View 32 v70,2013-03-22 10:07:00,
2013-03-22 02:12:00,24.3,13.5,30.24,NNE,22,1.0,1.0,63,0.00,,,0.00,Weather View 32 v70,2013-03-22 10:12:00,
2013-03-22 02:17:00,24.8,14.0,30.24,NNE,22,1.0,1.0,63,0.00,,,0.00,Weather View 32 v70,2013-03-22 10:17:00,
2013-03-22 02:22:00,25.3,14.5,30.24,NNW,338,1.0,1.0,63,0.00,,,0.00,Weather View 32 v70,2013-03-22 10:22:00,
2013-03-22 02:27:00,25.7,14.8,30.23,NNW,338,2.0,2.0,63,0.00,,,0.00,Weather View 32 v70,2013-03-22 10:27:00,
2013-03-22 02:32:00,25.7,15.2,30.23,NNW,338,2.0,2.0,64,0.00,,,0.00,Weather View 32 v70,2013-03-22 10:32:00,
2013-03-22 02:37:00,26.1,16.3,30.23,NNW,338,2.0,2.0,66,0.00,,,0.00,Weather View 32 v70,2013-03-22 10:37:00,
2013-03-22 02:42:00,26.1,16.6,30.23,NNW,338,2.0,2.0,67,0.00,,,0.00,Weather View 32 v70,2013-03-22 10:42:00,
2013-03-22 02:47:00,26.1,17.3,30.22,NNW,338,2.0,2.0,69,0.00,,,0.00,Weather View 32 v70,2013-03-22 10:47:00,
2013-03-22 02:52:00,26.1,17.9,30.22,NNW,338,2.0,2.0,71,0.00,,,0.00,Weather View 32 v70,2013-03-22 10:52:00,
2013-03-22 02:57:00,26.1,17.9,30.22,NNW,338,2.0,2.0,71,0.00,,,0.00,Weather View 32 v70,2013-03-22 10:57:00,
2013-03-22 03:02:00,26.1,18.6,30.22,NNW,338,2.0,3.0,73,0.00,,,0.00,Weather View 32 v70,2013-03-22 11:02:00,
2013-03-22 03:07:00,26.4,18.9,30.22,NNW,338,2.0,3.0,73,0.00,,,0.00,Weather View 32 v70,2013-03-22 11:07:00,
2013-03-22 03:12:00,26.4,18.9,30.22,NNW,338,2.0,3.0,73,0.00,,,0.00,Weather View 32 v70,2013-03-22 11:12:00,
2013-03-22 03:17:00,26.1,20.1,30.22,NNE,22,3.0,3.0,78,0.00,,,0.00,Weather View 32 v70,2013-03-22 11:17:00,
2013-03-22 03:22:00,26.1,20.4,30.22,NNE,22,3.0,3.0,79,0.00,,,0.00,Weather View 32 v70,2013-03-22 11:22:00,
2013-03-22 03:27:00,26.1,20.4,30.21,NNW,338,3.0,3.0,79,0.00,,,0.00,Weather View 32 v70,2013-03-22 11:27:00,
2013-03-22 03:32:00,26.1,20.7,30.21,NE,45,2.0,3.0,80,0.00,,,0.00,Weather View 32 v70,2013-03-22 11:32:00,
2013-03-22 03:37:00,26.1,21.0,30.21,NE,45,2.0,3.0,81,0.00,,,0.00,Weather View 32 v70,2013-03-22 11:37:00,
2013-03-22 03:42:00,26.1,21.0,30.21,NE,45,1.0,3.0,81,0.00,,,0.00,Weather View 32 v70,2013-03-22 11:42:00,
2013-03-22 03:47:00,26.1,21.0,30.20,NE,45,1.0,3.0,81,0.00,,,0.00,Weather View 32 v70,2013-03-22 11:47:00,
2013-03-22 03:52:00,26.1,21.0,30.20,NE,45,0.0,3.0,81,0.00,,,0.00,Weather View 32 v70,2013-03-22 11:52:00,
2013-03-22 03:57:00,26.1,21.0,30.20,NE,45,0.0,3.0,81,0.00,,,0.00,Weather View 32 v70,2013-03-22 11:57:00,
2013-03-22 04:02:00,26.1,21.3,30.20,NE,45,1.0,3.0,82,0.00,,,0.00,Weather View 32 v70,2013-03-22 12:02:00,
2013-03-22 04:07:00,26.1,21.3,30.19,NE,45,2.0,3.0,82,0.00,,,0.00,Weather View 32 v70,2013-03-22 12:07:00,
2013-03-22 04:12:00,26.1,21.6,30.19,NE,45,2.0,3.0,83,0.00,,,0.00,Weather View 32 v70,2013-03-22 12:12:00,
2013-03-22 04:17:00,26.1,21.3,30.19,NE,45,1.0,3.0,82,0.00,,,0.00,Weather View 32 v70,2013-03-22 12:17:00,
2013-03-22 04:22:00,25.7,21.0,30.19,NE,45,0.0,3.0,82,0.00,,,0.00,Weather View 32 v70,2013-03-22 12:22:00,
2013-03-22 04:27:00,25.7,21.0,30.18,NE,45,0.0,3.0,82,0.00,,,0.00,Weather View 32 v70,2013-03-22 12:27:00,
2013-03-22 04:32:00,25.7,21.0,30.18,NE,45,0.0,2.0,82,0.00,,,0.00,Weather View 32 v70,2013-03-22 12:32:00,
2013-03-22 04:37:00,25.7,21.0,30.18,NE,45,1.0,2.0,82,0.00,,,0.00,Weather View 32 v70,2013-03-22 12:37:00,
2013-03-22 04:42:00,26.1,21.3,30.18,NE,45,1.0,2.0,82,0.00,,,0.00,Weather View 32 v70,2013-03-22 12:42:00,
2013-03-22 04:47:00,26.1,21.3,30.18,NE,45,1.0,2.0,82,0.00,,,0.00,Weather View 32 v70,2013-03-22 12:47:00,
2013-03-22 04:52:00,25.7,21.0,30.18,NE,45,1.0,2.0,82,0.00,,,0.00,Weather View 32 v70,2013-03-22 12:52:00,
2013-03-22 04:57:00,25.7,21.0,30.18,NE,45,0.0,2.0,82,0.00,,,0.00,Weather View 32 v70,2013-03-22 12:57:00,
2013-03-22 05:02:00,25.7,21.0,30.18,NE,45,1.0,2.0,82,0.00,,,0.00,Weather View 32 v70,2013-03-22 13:02:00,
2013-03-22 05:07:00,25.7,21.0,30.18,NE,45,1.0,2.0,82,0.00,,,0.00,Weather View 32 v70,2013-03-22 13:07:00,
2013-03-22 05:12:00,25.5,20.5,30.18,NE,45,1.0,2.0,81,0.00,,,0.00,Weather View 32 v70,2013-03-22 13:12:00,
2013-03-22 05:17:00,25.3,20.3,30.18,NE,45,0.0,1.0,81,0.00,,,0.00,Weather View 32 v70,2013-03-22 13:17:00,
2013-03-22 05:22:00,25.3,20.3,30.18,NE,45,0.0,1.0,81,0.00,,,0.00,Weather View 32 v70,2013-03-22 13:22:00,
2013-03-22 05:27:00,25.3,20.3,30.17,NE,45,0.0,1.0,81,0.00,,,0.00,Weather View 32 v70,2013-03-22 13:27:00,
2013-03-22 05:32:00,25.3,20.6,30.17,NE,45,1.0,1.0,82,0.00,,,0.00,Weather View 32 v70,2013-03-22 13:32:00,
2013-03-22 05:37:00,25.3,20.3,30.17,NE,45,1.0,1.0,81,0.00,,,0.00,Weather View 32 v70,2013-03-22 13:37:00,
2013-03-22 05:42:00,24.8,19.8,30.17,NE,45,0.0,1.0,81,0.00,,,0.00,Weather View 32 v70,2013-03-22 13:42:00,
2013-03-22 05:47:00,25.0,20.0,30.16,NE,45,0.0,1.0,81,0.00,,,0.00,Weather View 32 v70,2013-03-22 13:47:00,
2013-03-22 05:52:00,24.6,19.9,30.16,NE,45,1.0,1.0,82,0.00,,,0.00,Weather View 32 v70,2013-03-22 13:52:00,
2013-03-22 05:57:00,24.8,20.1,30.16,NE,45,1.0,1.0,82,0.00,,,0.00,Weather View 32 v70,2013-03-22 13:57:00,
2013-03-22 06:02:00,24.6,19.9,30.16,NE,45,1.0,1.0,82,0.00,,,0.00,Weather View 32 v70,2013-03-22 14:02:00,
2013-03-22 06:08:00,24.6,19.9,30.16,NE,45,1.0,1.0,82,0.00,,,0.00,Weather View 32 v70,2013-03-22 14:08:00,
2013-03-22 06:12:00,24.6,19.9,30.16,NE,45,1.0,1.0,82,0.00,,,0.00,Weather View 32 v70,2013-03-22 14:12:00,
2013-03-22 06:18:00,24.3,19.6,30.16,NE,45,1.0,1.0,82,0.00,,,0.00,Weather View 32 v70,2013-03-22 14:18:00,
2013-03-22 06:22:00,24.1,19.4,30.16,NE,45,1.0,1.0,82,0.00,,,0.00,Weather View 32 v70,2013-03-22 14:22:00,
2013-03-22 06:27:00,23.9,19.2,30.16,NE,45,1.0,1.0,82,0.00,,,0.00,Weather View 32 v70,2013-03-22 14:27:00,
2013-03-22 06:32:00,23.9,19.2,30.16,NE,45,1.0,1.0,82,0.00,,,0.00,Weather View 32 v70,2013-03-22 14:32:00,
2013-03-22 06:37:00,23.9,19.2,30.16,NE,45,1.0,1.0,82,0.00,,,0.00,Weather View 32 v70,2013-03-22 14:37:00,
2013-03-22 06:42:00,23.5,18.9,30.16,NE,45,0.0,1.0,82,0.00,,,0.00,Weather View 32 v70,2013-03-22 14:42:00,
2013-03-22 06:47:00,23.4,18.7,30.16,NE,45,0.0,1.0,82,0.00,,,0.00,Weather View 32 v70,2013-03-22 14:47:00,
2013-03-22 06:52:00,23.2,18.5,30.16,NE,45,0.0,1.0,82,0.00,,,0.00,Weather View 32 v70,2013-03-22 14:52:00,
2013-03-22 06:57:00,23.2,18.5,30.16,NE,45,0.0,1.0,82,0.00,,,0.00,Weather View 32 v70,2013-03-22 14:57:00,
2013-03-22 07:02:00,23.2,18.5,30.16,NE,45,0.0,1.0,82,0.00,,,0.00,Weather View 32 v70,2013-03-22 15:02:00,
2013-03-22 07:07:00,22.8,18.2,30.16,NE,45,0.0,1.0,82,0.00,,,0.00,Weather View 32 v70,2013-03-22 15:07:00,
2013-03-22 07:12:00,22.6,18.0,30.16,NE,45,0.0,1.0,82,0.00,,,0.00,Weather View 32 v70,2013-03-22 15:12:00,
2013-03-22 07:17:00,22.5,17.8,30.16,NE,45,0.0,1.0,82,0.00,,,0.00,Weather View 32 v70,2013-03-22 15:17:00,
2013-03-22 07:22:00,22.5,17.8,30.16,NE,45,0.0,1.0,82,0.00,,,0.00,Weather View 32 v70,2013-03-22 15:22:00,
2013-03-22 07:27:00,22.5,17.8,30.15,NE,45,0.0,1.0,82,0.00,,,0.00,Weather View 32 v70,2013-03-22 15:27:00,
2013-03-22 07:32:00,22.6,18.0,30.15,NE,45,1.0,1.0,82,0.00,,,0.00,Weather View 32 v70,2013-03-22 15:32:00,
2013-03-22 07:37:00,22.6,18.3,30.15,NE,45,1.0,1.0,83,0.00,,,0.00,Weather View 32 v70,2013-03-22 15:37:00,
2013-03-22 07:42:00,22.6,18.3,30.15,NE,45,1.0,1.0,83,0.00,,,0.00,Weather View 32 v70,2013-03-22 15:42:00,
2013-03-22 07:47:00,22.6,18.3,30.14,NE,45,1.0,1.0,83,0.00,,,0.00,Weather View 32 v70,2013-03-22 15:47:00,
2013-03-22 07:52:00,22.5,17.8,30.14,NE,45,0.0,1.0,82,0.00,,,0.00,Weather View 32 v70,2013-03-22 15:52:00,
2013-03-22 07:57:00,22.5,17.8,30.14,NE,45,0.0,1.0,82,0.00,,,0.00,Weather View 32 v70,2013-03-22 15:57:00,
2013-03-22 08:02:00,22.5,17.8,30.14,NE,45,0.0,1.0,82,0.00,,,0.00,Weather View 32 v70,2013-03-22 16:02:00,
2013-03-22 08:07:00,22.5,17.8,30.14,NE,45,0.0,1.0,82,0.00,,,0.00,Weather View 32 v70,2013-03-22 16:07:00,
2013-03-22 08:12:00,22.5,17.8,30.14,NE,45,0.0,1.0,82,0.00,,,0.00,Weather View 32 v70,2013-03-22 16:12:00,
2013-03-22 08:17:00,22.5,17.8,30.14,NE,45,0.0,1.0,82,0.00,,,0.00,Weather View 32 v70,2013-03-22 16:17:00,
2013-03-22 08:22:00,22.5,17.8,30.14,NE,45,0.0,1.0,82,0.00,,,0.00,Weather View 32 v70,2013-03-22 16:22:00,
2013-03-22 08:27:00,22.5,18.1,30.14,NE,45,0.0,1.0,83,0.00,,,0.00,Weather View 32 v70,2013-03-22 16:27:00,
2013-03-22 08:32:00,22.3,17.9,30.14,NE,45,1.0,1.0,83,0.00,,,0.00,Weather View 32 v70,2013-03-22 16:32:00,
2013-03-22 08:37:00,22.5,18.1,30.14,NE,45,1.0,1.0,83,0.00,,,0.00,Weather View 32 v70,2013-03-22 16:37:00,
2013-03-22 08:42:00,22.5,17.8,30.14,NE,45,1.0,1.0,82,0.00,,,0.00,Weather View 32 v70,2013-03-22 16:42:00,
2013-03-22 08:47:00,22.5,17.8,30.16,NE,45,1.0,1.0,82,0.00,,,0.00,Weather View 32 v70,2013-03-22 16:47:00,
2013-03-22 08:52:00,22.5,17.8,30.16,NE,45,1.0,1.0,82,0.00,,,0.00,Weather View 32 v70,2013-03-22 16:52:00,
2013-03-22 08:58:00,22.5,17.8,30.16,NE,45,1.0,1.0,82,0.00,,,0.00,Weather View 32 v70,2013-03-22 16:58:00,
2013-03-22 09:03:00,22.8,18.4,30.16,NE,45,1.0,1.0,83,0.00,,,0.00,Weather View 32 v70,2013-03-22 17:03:00,
2013-03-22 09:08:00,22.6,18.0,30.16,NE,45,2.0,2.0,82,0.00,,,0.00,Weather View 32 v70,2013-03-22 17:08:00,
2013-03-22 09:13:00,22.8,18.2,30.16,NE,45,1.0,2.0,82,0.00,,,0.00,Weather View 32 v70,2013-03-22 17:13:00,
2013-03-22 09:18:00,22.8,18.2,30.16,NE,45,1.0,2.0,82,0.00,,,0.00,Weather View 32 v70,2013-03-22 17:18:00,
2013-03-22 09:23:00,23.0,18.3,30.16,NE,45,1.0,2.0,82,0.00,,,0.00,Weather View 32 v70,2013-03-22 17:23:00,
2013-03-22 09:28:00,23.2,18.5,30.16,NE,45,1.0,2.0,82,0.00,,,0.00,Weather View 32 v70,2013-03-22 17:28:00,
2013-03-22 09:33:00,23.2,18.2,30.16,NE,45,1.0,2.0,81,0.00,,,0.00,Weather View 32 v70,2013-03-22 17:33:00,
2013-03-22 09:38:00,23.2,18.2,30.16,NE,45,1.0,2.0,81,0.00,,,0.00,Weather View 32 v70,2013-03-22 17:38:00,
2013-03-22 09:43:00,23.5,18.6,30.16,NE,45,1.0,2.0,81,0.00,,,0.00,Weather View 32 v70,2013-03-22 17:43:00,
2013-03-22 09:48:00,23.9,18.9,30.16,NE,45,1.0,2.0,81,0.00,,,0.00,Weather View 32 v70,2013-03-22 17:48:00,
2013-03-22 09:53:00,23.9,18.9,30.16,NE,45,1.0,2.0,81,0.00,,,0.00,Weather View 32 v70,2013-03-22 17:53:00,
2013-03-22 09:58:00,23.7,18.7,30.16,ENE,68,1.0,2.0,81,0.00,,,0.00,Weather View 32 v70,2013-03-22 17:58:00,
2013-03-22 10:03:00,23.9,18.9,30.16,ENE,68,2.0,2.0,81,0.00,,,0.00,Weather View 32 v70,2013-03-22 18:03:00,
2013-03-22 10:08:00,23.9,18.9,30.15,ENE,68,2.0,2.0,81,0.00,,,0.00,Weather View 32 v70,2013-03-22 18:08:00,
2013-03-22 10:13:00,23.9,18.9,30.15,ENE,68,2.0,2.0,81,0.00,,,0.00,Weather View 32 v70,2013-03-22 18:13:00,
2013-03-22 10:18:00,23.9,18.9,30.15,ENE,68,2.0,2.0,81,0.00,,,0.00,Weather View 32 v70,2013-03-22 18:18:00,
2013-03-22 10:23:00,24.3,19.3,30.15,ENE,68,1.0,2.0,81,0.00,,,0.00,Weather View 32 v70,2013-03-22 18:23:00,
2013-03-22 10:28:00,24.3,19.3,30.15,ENE,68,1.0,2.0,81,0.00,,,0.00,Weather View 32 v70,2013-03-22 18:28:00,
2013-03-22 10:33:00,24.3,19.0,30.15,ENE,68,1.0,2.0,80,0.00,,,0.00,Weather View 32 v70,2013-03-22 18:33:00,
2013-03-22 10:38:00,24.6,19.3,30.15,ENE,68,1.0,2.0,80,0.00,,,0.00,Weather View 32 v70,2013-03-22 18:38:00,
2013-03-22 10:43:00,24.6,19.3,30.15,ENE,68,1.0,2.0,80,0.00,,,0.00,Weather View 32 v70,2013-03-22 18:43:00,
2013-03-22 10:48:00,24.8,19.5,30.15,ENE,68,2.0,2.0,80,0.00,,,0.00,Weather View 32 v70,2013-03-22 18:48:00,
2013-03-22 10:53:00,25.0,19.7,30.15,ENE,68,1.0,2.0,80,0.00,,,0.00,Weather View 32 v70,2013-03-22 18:53:00,
2013-03-22 10:58:00,25.3,19.7,30.15,ENE,68,0.0,2.0,79,0.00,,,0.00,Weather View 32 v70,2013-03-22 18:58:00,
2013-03-22 11:03:00,25.7,20.1,30.15,ENE,68,0.0,2.0,79,0.00,,,0.00,Weather View 32 v70,2013-03-22 19:03:00,
2013-03-22 11:08:00,25.7,20.1,30.15,ENE,68,1.0,2.0,79,0.00,,,0.00,Weather View 32 v70,2013-03-22 19:08:00,
2013-03-22 11:13:00,25.3,20.0,30.15,ENE,68,1.0,2.0,80,0.00,,,0.00,Weather View 32 v70,2013-03-22 19:13:00,
2013-03-22 11:18:00,25.3,20.0,30.15,ENE,68,0.0,2.0,80,0.00,,,0.00,Weather View 32 v70,2013-03-22 19:18:00,
2013-03-22 11:23:00,25.3,20.3,30.15,ENE,68,0.0,2.0,81,0.00,,,0.00,Weather View 32 v70,2013-03-22 19:23:00,
2013-03-22 11:28:00,25.5,20.5,30.15,ENE,68,0.0,2.0,81,0.00,,,0.00,Weather View 32 v70,2013-03-22 19:28:00,
2013-03-22 11:33:00,25.5,20.5,30.15,ENE,68,0.0,2.0,81,0.00,,,0.00,Weather View 32 v70,2013-03-22 19:33:00,
2013-03-22 11:38:00,25.7,21.0,30.15,ENE,68,0.0,2.0,82,0.00,,,0.00,Weather View 32 v70,2013-03-22 19:38:00,
2013-03-22 11:43:00,25.7,21.0,30.15,ENE,68,0.0,2.0,82,0.00,,,0.00,Weather View 32 v70,2013-03-22 19:43:00,
2013-03-22 11:48:00,25.5,20.5,30.15,ENE,68,0.0,2.0,81,0.00,,,0.00,Weather View 32 v70,2013-03-22 19:48:00,
2013-03-22 11:53:00,25.3,20.3,30.15,ENE,68,0.0,1.0,81,0.00,,,0.00,Weather View 32 v70,2013-03-22 19:53:00,
2013-03-22 11:58:00,25.7,21.0,30.15,ENE,68,0.0,1.0,82,0.00,,,0.00,Weather View 32 v70,2013-03-22 19:58:00,
2013-03-22 12:03:00,25.5,20.8,30.15,NE,45,0.0,1.0,82,0.00,,,0.00,Weather View 32 v70,2013-03-22 20:03:00,
2013-03-22 12:08:00,25.7,21.0,30.14,NE,45,0.0,1.0,82,0.00,,,0.00,Weather View 32 v70,2013-03-22 20:08:00,
2013-03-22 12:13:00,25.7,21.0,30.14,NE,45,0.0,1.0,82,0.00,,,0.00,Weather View 32 v70,2013-03-22 20:13:00,
2013-03-22 12:18:00,26.4,21.7,30.14,NE,45,0.0,1.0,82,0.00,,,0.00,Weather View 32 v70,2013-03-22 20:18:00,
2013-03-22 12:23:00,26.2,21.8,30.14,NE,45,0.0,1.0,83,0.00,,,0.00,Weather View 32 v70,2013-03-22 20:23:00,
2013-03-22 12:28:00,26.4,22.0,30.13,SW,225,1.0,1.0,83,0.00,,,0.00,Weather View 32 v70,2013-03-22 20:28:00,
2013-03-22 12:33:00,26.6,22.1,30.13,NNW,338,2.0,2.0,83,0.00,,,0.00,Weather View 32 v70,2013-03-22 20:33:00,
2013-03-22 12:38:00,27.3,23.1,30.13,NNE,22,2.0,2.0,84,0.00,,,0.00,Weather View 32 v70,2013-03-22 20:38:00,
2013-03-22 12:43:00,27.9,23.7,30.13,NNW,338,2.0,2.0,84,0.00,,,0.00,Weather View 32 v70,2013-03-22 20:43:00,
2013-03-22 12:48:00,28.6,24.4,30.13,NNW,338,1.0,2.0,84,0.00,,,0.00,Weather View 32 v70,2013-03-22 20:48:00,
2013-03-22 12:53:00,29.3,25.1,30.13,NNW,338,0.0,2.0,84,0.00,,,0.00,Weather View 32 v70,2013-03-22 20:53:00,
2013-03-22 12:58:00,29.3,24.8,30.13,NNW,338,1.0,2.0,83,0.00,,,0.00,Weather View 32 v70,2013-03-22 20:58:00,
2013-03-22 13:03:00,29.7,25.1,30.13,NNW,338,1.0,2.0,83,0.00,,,0.00,Weather View 32 v70,2013-03-22 21:03:00,
2013-03-22 13:08:00,29.8,25.3,30.12,NNW,338,1.0,2.0,83,0.00,,,0.00,Weather View 32 v70,2013-03-22 21:08:00,
2013-03-22 13:13:00,30.4,25.8,30.12,NNE,22,1.0,2.0,83,0.00,,,0.00,Weather View 32 v70,2013-03-22 21:13:00,
2013-03-22 13:18:00,31.3,26.7,30.12,NNE,22,1.0,2.0,83,0.00,,,0.00,Weather View 32 v70,2013-03-22 21:18:00,
2013-03-22 13:23:00,31.3,26.7,30.12,NNE,22,1.0,2.0,83,0.00,,,0.00,Weather View 32 v70,2013-03-22 21:23:00,
2013-03-22 13:28:00,31.1,26.0,30.13,NNE,22,2.0,2.0,81,0.00,,,0.00,Weather View 32 v70,2013-03-22 21:28:00,
2013-03-22 13:33:00,31.1,26.0,30.13,NNE,22,2.0,2.0,81,0.00,,,0.00,Weather View 32 v70,2013-03-22 21:33:00,
2013-03-22 13:38:00,31.5,26.3,30.13,NNE,22,2.0,2.0,81,0.00,,,0.00,Weather View 32 v70,2013-03-22 21:38:00,
2013-03-22 13:43:00,32.0,26.5,30.13,NNE,22,1.0,2.0,80,0.00,,,0.00,Weather View 32 v70,2013-03-22 21:43:00,
2013-03-22 13:48:00,32.9,27.1,30.13,NNE,22,1.0,2.0,79,0.00,,,0.00,Weather View 32 v70,2013-03-22 21:48:00,
2013-03-22 13:53:00,34.7,28.9,30.13,NNE,22,0.0,2.0,79,0.00,,,0.00,Weather View 32 v70,2013-03-22 21:53:00,
2013-03-22 13:58:00,35.1,28.3,30.13,NNE,22,0.0,2.0,76,0.00,,,0.00,Weather View 32 v70,2013-03-22 21:58:00,
2013-03-22 14:03:00,39.2,31.6,30.13,NNE,22,1.0,2.0,74,0.00,,,0.00,Weather View 32 v70,2013-03-22 22:03:00,
2013-03-22 14:08:00,40.5,31.1,30.12,NNE,22,1.0,2.0,69,0.00,,,0.00,Weather View 32 v70,2013-03-22 22:08:00,
2013-03-22 14:13:00,43.3,32.7,30.12,NNE,22,1.0,2.0,66,0.00,,,0.00,Weather View 32 v70,2013-03-22 22:13:00,
2013-03-22 14:18:00,46.4,32.8,30.12,North,0,2.0,2.0,59,0.00,,,0.00,Weather View 32 v70,2013-03-22 22:18:00,
2013-03-22 14:23:00,47.7,33.6,30.12,North,0,2.0,2.0,58,0.00,,,0.00,Weather View 32 v70,2013-03-22 22:23:00,
2013-03-22 14:28:00,45.3,31.8,30.10,North,0,2.0,2.0,59,0.00,,,0.00,Weather View 32 v70,2013-03-22 22:28:00,
2013-03-22 14:33:00,44.8,32.1,30.10,NNW,338,2.0,2.0,61,0.00,,,0.00,Weather View 32 v70,2013-03-22 22:33:00,
2013-03-22 14:38:00,43.7,30.7,30.10,NNW,338,2.0,2.0,60,0.00,,,0.00,Weather View 32 v70,2013-03-22 22:38:00,
2013-03-22 14:43:00,42.3,30.5,30.10,NNW,338,2.0,2.0,63,0.00,,,0.00,Weather View 32 v70,2013-03-22 22:43:00,
2013-03-22 14:48:00,41.2,30.3,30.10,NNW,338,1.0,2.0,65,0.00,,,0.00,Weather View 32 v70,2013-03-22 22:48:00,
2013-03-22 14:53:00,40.8,30.0,30.10,NNW,338,2.0,2.0,65,0.00,,,0.00,Weather View 32 v70,2013-03-22 22:53:00,
2013-03-22 14:58:00,41.2,30.7,30.10,NNW,338,2.0,2.0,66,0.00,,,0.00,Weather View 32 v70,2013-03-22 22:58:00,
2013-03-22 15:03:00,39.9,29.5,30.10,NNW,338,2.0,2.0,66,0.00,,,0.00,Weather View 32 v70,2013-03-22 23:03:00,
2013-03-22 15:08:00,39.0,29.7,30.10,NNW,338,3.0,3.0,69,0.00,,,0.00,Weather View 32 v70,2013-03-22 23:08:00,
2013-03-22 15:13:00,38.7,29.4,30.10,NNW,338,2.0,3.0,69,0.00,,,0.00,Weather View 32 v70,2013-03-22 23:13:00,
2013-03-22 15:18:00,38.3,29.4,30.10,NNW,338,3.0,3.0,70,0.00,,,0.00,Weather View 32 v70,2013-03-22 23:18:00,
2013-03-22 15:23:00,39.0,30.8,30.10,NNE,22,3.0,3.0,72,0.00,,,0.00,Weather View 32 v70,2013-03-22 23:23:00,
2013-03-22 15:28:00,39.0,30.4,30.11,North,0,2.0,3.0,71,0.03,,,0.03,Weather View 32 v70,2013-03-22 23:28:00,
2013-03-22 15:33:00,38.3,30.1,30.11,North,0,2.0,3.0,72,0.03,,,0.03,Weather View 32 v70,2013-03-22 23:33:00,
2013-03-22 15:39:00,38.3,30.4,30.11,North,0,2.0,3.0,73,0.03,,,0.03,Weather View 32 v70,2013-03-22 23:39:00,
2013-03-22 15:44:00,38.5,30.2,30.11,North,0,2.0,3.0,72,0.06,,,0.06,Weather View 32 v70,2013-03-22 23:44:00,
2013-03-22 15:48:00,39.2,30.9,30.10,North,0,2.0,3.0,72,0.06,,,0.06,Weather View 32 v70,2013-03-22 23:48:00,
2013-03-22 15:53:00,39.2,30.6,30.10,North,0,3.0,3.0,71,0.06,,,0.06,Weather View 32 v70,2013-03-22 23:53:00,
2013-03-22 15:58:00,39.4,30.8,30.10,North,0,3.0,3.0,71,0.06,,,0.06,Weather View 32 v70,2013-03-22 23:58:00,
2013-03-22 16:04:00,39.0,30.8,30.08,North,0,3.0,3.0,72,0.06,,,0.06,Weather View 32 v70,2013-03-23 00:04:00,
2013-03-22 16:09:00,39.0,30.8,30.08,NNW,338,2.0,3.0,72,0.06,,,0.06,Weather View 32 v70,2013-03-23 00:09:00,
2013-03-22 16:13:00,38.7,30.4,30.08,NNW,338,2.0,3.0,72,0.06,,,0.06,Weather View 32 v70,2013-03-23 00:13:00,
2013-03-22 16:19:00,38.5,30.6,30.08,NNW,338,2.0,3.0,73,0.06,,,0.06,Weather View 32 v70,2013-03-23 00:19:00,
2013-03-22 16:24:00,38.7,31.1,30.09,NNW,338,2.0,3.0,74,0.06,,,0.06,Weather View 32 v70,2013-03-23 00:24:00,
2013-03-22 16:29:00,38.5,30.9,30.09,NNW,338,2.0,3.0,74,0.03,,,0.06,Weather View 32 v70,2013-03-23 00:29:00,
2013-03-22 16:34:00,38.5,30.9,30.09,NNW,338,2.0,3.0,74,0.03,,,0.06,Weather View 32 v70,2013-03-23 00:34:00,
2013-03-22 16:39:00,38.7,31.4,30.09,NNW,338,2.0,3.0,75,0.03,,,0.06,Weather View 32 v70,2013-03-23 00:39:00,
2013-03-22 16:44:00,38.3,31.1,30.08,NNW,338,1.0,3.0,75,0.00,,,0.06,Weather View 32 v70,2013-03-23 00:44:00,
2013-03-22 16:49:00,37.8,30.5,30.08,NNW,338,1.0,3.0,75,0.00,,,0.06,Weather View 32 v70,2013-03-23 00:49:00,
2013-03-22 16:54:00,37.8,30.9,30.08,NNW,338,1.0,3.0,76,0.00,,,0.06,Weather View 32 v70,2013-03-23 00:54:00,
2013-03-22 16:59:00,37.6,30.7,30.08,NNW,338,1.0,3.0,76,0.00,,,0.06,Weather View 32 v70,2013-03-23 00:59:00,
2013-03-22 17:04:00,37.9,31.0,30.08,NNE,22,2.0,3.0,76,0.00,,,0.06,Weather View 32 v70,2013-03-23 01:04:00,
2013-03-22 17:09:00,38.3,31.1,30.08,NNE,22,3.0,3.0,75,0.00,,,0.06,Weather View 32 v70,2013-03-23 01:09:00,
2013-03-22 17:14:00,37.9,30.4,30.08,NNE,22,4.0,4.0,74,0.00,,,0.06,Weather View 32 v70,2013-03-23 01:14:00,
2013-03-22 17:19:00,37.9,30.7,30.08,NNE,22,3.0,4.0,75,0.00,,,0.06,Weather View 32 v70,2013-03-23 01:19:00,
2013-03-22 17:24:00,37.8,30.5,30.08,NNE,22,3.0,4.0,75,0.00,,,0.06,Weather View 32 v70,2013-03-23 01:24:00,
2013-03-22 17:29:00,37.8,30.5,30.08,NNE,22,3.0,4.0,75,0.00,,,0.06,Weather View 32 v70,2013-03-23 01:29:00,
2013-03-22 17:34:00,37.8,30.5,30.08,NNE,22,2.0,4.0,75,0.00,,,0.06,Weather View 32 v70,2013-03-23 01:34:00,
2013-03-22 17:39:00,37.8,30.5,30.08,NNE,22,2.0,4.0,75,0.00,,,0.06,Weather View 32 v70,2013-03-23 01:39:00,
2013-03-22 17:44:00,37.8,30.5,30.07,NNE,22,2.0,4.0,75,0.00,,,0.06,Weather View 32 v70,2013-03-23 01:44:00,
2013-03-22 17:49:00,37.8,30.5,30.07,NNE,22,2.0,4.0,75,0.00,,,0.06,Weather View 32 v70,2013-03-23 01:49:00,
2013-03-22 17:54:00,37.9,31.0,30.07,NNE,22,2.0,4.0,76,0.00,,,0.06,Weather View 32 v70,2013-03-23 01:54:00,
2013-03-22 17:59:00,37.8,30.9,30.07,NNE,22,2.0,4.0,76,0.00,,,0.06,Weather View 32 v70,2013-03-23 01:59:00,
2013-03-22 18:04:00,37.9,31.0,30.06,NNE,22,1.0,4.0,76,0.00,,,0.06,Weather View 32 v70,2013-03-23 02:04:00,
2013-03-22 18:09:00,37.8,30.9,30.06,NNE,22,1.0,4.0,76,0.00,,,0.06,Weather View 32 v70,2013-03-23 02:09:00,
2013-03-22 18:14:00,37.8,30.9,30.06,NNE,22,2.0,4.0,76,0.00,,,0.06,Weather View 32 v70,2013-03-23 02:14:00,
2013-03-22 18:19:00,37.6,30.7,30.06,NNE,22,2.0,3.0,76,0.00,,,0.06,Weather View 32 v70,2013-03-23 02:19:00,
2013-03-22 18:24:00,37.0,30.2,30.07,NNE,22,2.0,3.0,76,0.00,,,0.06,Weather View 32 v70,2013-03-23 02:24:00,
2013-03-22 18:29:00,37.0,30.2,30.07,NNE,22,2.0,3.0,76,0.00,,,0.06,Weather View 32 v70,2013-03-23 02:29:00,
2013-03-22 18:34:00,37.0,30.2,30.07,NNE,22,1.0,3.0,76,0.00,,,0.06,Weather View 32 v70,2013-03-23 02:34:00,
2013-03-22 18:39:00,37.0,30.2,30.07,NNE,22,1.0,2.0,76,0.00,,,0.06,Weather View 32 v70,2013-03-23 02:39:00,
2013-03-22 18:44:00,36.9,30.0,30.06,NNE,22,1.0,2.0,76,0.00,,,0.06,Weather View 32 v70,2013-03-23 02:44:00,
2013-03-22 18:49:00,36.9,30.0,30.06,NNE,22,0.0,2.0,76,0.00,,,0.06,Weather View 32 v70,2013-03-23 02:49:00,
2013-03-22 18:54:00,36.7,30.1,30.06,NNE,22,0.0,2.0,77,0.00,,,0.06,Weather View 32 v70,2013-03-23 02:54:00,
2013-03-22 18:59:00,36.7,30.1,30.06,NNE,22,0.0,2.0,77,0.00,,,0.06,Weather View 32 v70,2013-03-23 02:59:00,
2013-03-22 19:04:00,36.9,30.3,30.06,NNE,22,0.0,2.0,77,0.00,,,0.06,Weather View 32 v70,2013-03-23 03:04:00,
2013-03-22 19:09:00,36.5,30.0,30.06,NNE,22,0.0,2.0,77,0.00,,,0.06,Weather View 32 v70,2013-03-23 03:09:00,
2013-03-22 19:14:00,36.3,29.8,30.06,NNE,22,0.0,2.0,77,0.00,,,0.06,Weather View 32 v70,2013-03-23 03:14:00,
2013-03-22 19:19:00,36.1,29.9,30.06,NNE,22,0.0,2.0,78,0.00,,,0.06,Weather View 32 v70,2013-03-23 03:19:00,
2013-03-22 19:24:00,36.1,29.9,30.06,NNE,22,0.0,2.0,78,0.00,,,0.06,Weather View 32 v70,2013-03-23 03:24:00,
2013-03-22 19:29:00,36.1,29.9,30.06,NNE,22,0.0,2.0,78,0.00,,,0.06,Weather View 32 v70,2013-03-23 03:29:00,
2013-03-22 19:34:00,35.8,29.9,30.06,NNE,22,0.0,1.0,79,0.00,,,0.06,Weather View 32 v70,2013-03-23 03:34:00,
2013-03-22 19:39:00,35.6,29.4,30.06,NNE,22,0.0,1.0,78,0.00,,,0.06,Weather View 32 v70,2013-03-23 03:39:00,
2013-03-22 19:44:00,35.4,29.6,30.05,NNE,22,0.0,1.0,79,0.00,,,0.06,Weather View 32 v70,2013-03-23 03:44:00,
2013-03-22 19:49:00,35.1,29.2,30.05,NNE,22,0.0,0.0,79,0.00,,,0.06,Weather View 32 v70,2013-03-23 03:49:00,
2013-03-22 19:54:00,34.9,29.3,30.05,NNE,22,0.0,0.0,80,0.00,,,0.06,Weather View 32 v70,2013-03-23 03:54:00,
2013-03-22 19:59:00,34.7,29.2,30.05,NNE,22,0.0,0.0,80,0.00,,,0.06,Weather View 32 v70,2013-03-23 03:59:00,
2013-03-22 20:00:00,34.7,29.5,30.05,NNE,22,1.0,0.0,81,0.00,,,0.06,Weather View 32 v70,2013-03-23 04:00:00,
2013-03-22 20:05:00,34.3,29.1,30.04,NE,45,2.0,2.0,81,0.00,,,0.06,Weather View 32 v70,2013-03-23 04:05:00,
2013-03-22 20:10:00,34.0,29.1,30.04,NE,45,2.0,2.0,82,0.00,,,0.06,Weather View 32 v70,2013-03-23 04:10:00,
2013-03-22 20:15:00,33.8,28.9,30.04,NE,45,1.0,2.0,82,0.00,,,0.06,Weather View 32 v70,2013-03-23 04:15:00,
2013-03-22 20:20:00,33.6,28.7,30.04,NE,45,0.0,2.0,82,0.00,,,0.06,Weather View 32 v70,2013-03-23 04:20:00,
2013-03-22 20:25:00,33.3,28.4,30.05,NE,45,0.0,2.0,82,0.00,,,0.06,Weather View 32 v70,2013-03-23 04:25:00,
2013-03-22 20:30:00,32.7,27.8,30.05,NE,45,0.0,2.0,82,0.00,,,0.06,Weather View 32 v70,2013-03-23 04:30:00,
2013-03-22 20:35:00,32.5,28.0,30.05,NE,45,0.0,2.0,83,0.00,,,0.06,Weather View 32 v70,2013-03-23 04:35:00,
2013-03-22 20:40:00,32.0,27.4,30.05,NE,45,0.0,2.0,83,0.00,,,0.06,Weather View 32 v70,2013-03-23 04:40:00,
2013-03-22 20:45:00,32.0,27.4,30.03,NE,45,0.0,2.0,83,0.00,,,0.06,Weather View 32 v70,2013-03-23 04:45:00,
2013-03-22 20:50:00,31.8,27.5,30.03,NE,45,1.0,2.0,84,0.00,,,0.06,Weather View 32 v70,2013-03-23 04:50:00,
2013-03-22 20:55:00,31.8,27.5,30.03,NE,45,0.0,2.0,84,0.00,,,0.06,Weather View 32 v70,2013-03-23 04:55:00,
2013-03-22 21:00:00,31.8,27.5,30.03,NE,45,0.0,2.0,84,0.00,,,0.06,Weather View 32 v70,2013-03-23 05:00:00,
2013-03-22 21:05:00,31.8,27.5,30.02,NE,45,0.0,2.0,84,0.00,,,0.06,Weather View 32 v70,2013-03-23 05:05:00,
2013-03-22 21:10:00,31.6,27.4,30.02,NE,45,0.0,2.0,84,0.00,,,0.06,Weather View 32 v70,2013-03-23 05:10:00,
2013-03-22 21:15:00,31.8,27.8,30.02,NE,45,0.0,1.0,85,0.00,,,0.06,Weather View 32 v70,2013-03-23 05:15:00,
2013-03-22 21:20:00,31.8,27.8,30.02,NE,45,0.0,1.0,85,0.00,,,0.06,Weather View 32 v70,2013-03-23 05:20:00,
2013-03-22 21:25:00,31.5,27.5,30.02,NE,45,1.0,1.0,85,0.00,,,0.06,Weather View 32 v70,2013-03-23 05:25:00,
2013-03-22 21:30:00,31.3,27.6,30.02,NNE,22,1.0,1.0,86,0.00,,,0.06,Weather View 32 v70,2013-03-23 05:30:00,
2013-03-22 21:35:00,31.3,27.6,30.02,NNE,22,2.0,2.0,86,0.00,,,0.06,Weather View 32 v70,2013-03-23 05:35:00,
2013-03-22 21:40:00,31.5,27.8,30.02,NNE,22,1.0,2.0,86,0.00,,,0.06,Weather View 32 v70,2013-03-23 05:40:00,
2013-03-22 21:45:00,31.5,27.8,30.02,NNE,22,1.0,2.0,86,0.00,,,0.06,Weather View 32 v70,2013-03-23 05:45:00,
2013-03-22 21:50:00,31.5,27.8,30.02,NNE,22,1.0,2.0,86,0.00,,,0.06,Weather View 32 v70,2013-03-23 05:50:00,
2013-03-22 21:55:00,31.5,27.8,30.02,NNE,22,0.0,2.0,86,0.00,,,0.06,Weather View 32 v70,2013-03-23 05:55:00,
2013-03-22 22:00:00,31.5,27.8,30.02,NNE,22,0.0,2.0,86,0.00,,,0.06,Weather View 32 v70,2013-03-23 06:00:00,
2013-03-22 22:05:00,31.5,27.8,30.02,NNE,22,0.0,2.0,86,0.00,,,0.06,Weather View 32 v70,2013-03-23 06:05:00,
2013-03-22 22:10:00,31.5,28.0,30.02,NNE,22,1.0,2.0,87,0.00,,,0.06,Weather View 32 v70,2013-03-23 06:10:00,
2013-03-22 22:15:00,31.5,28.0,30.02,NNE,22,1.0,2.0,87,0.00,,,0.06,Weather View 32 v70,2013-03-23 06:15:00,
2013-03-22 22:20:00,31.3,27.9,30.02,NNE,22,0.0,2.0,87,0.00,,,0.06,Weather View 32 v70,2013-03-23 06:20:00,
2013-03-22 22:25:00,30.9,27.2,30.02,NNE,22,0.0,2.0,86,0.00,,,0.06,Weather View 32 v70,2013-03-23 06:25:00,
2013-03-22 22:30:00,30.4,26.7,30.02,NNE,22,0.0,2.0,86,0.00,,,0.06,Weather View 32 v70,2013-03-23 06:30:00,
2013-03-22 22:35:00,29.8,26.2,30.02,NNE,22,0.0,2.0,86,0.00,,,0.06,Weather View 32 v70,2013-03-23 06:35:00,
2013-03-22 22:40:00,29.5,25.8,30.02,NNE,22,0.0,1.0,86,0.00,,,0.06,Weather View 32 v70,2013-03-23 06:40:00,
2013-03-22 22:45:00,29.3,25.6,30.02,NNE,22,0.0,1.0,86,0.00,,,0.06,Weather View 32 v70,2013-03-23 06:45:00,
2013-03-22 22:50:00,28.8,25.1,30.02,NNE,22,0.0,1.0,86,0.00,,,0.06,Weather View 32 v70,2013-03-23 06:50:00,
2013-03-22 22:55:00,28.6,24.9,30.02,NNE,22,0.0,1.0,86,0.00,,,0.06,Weather View 32 v70,2013-03-23 06:55:00,
2013-03-22 23:00:00,27.9,24.2,30.02,NNE,22,0.0,1.0,86,0.00,,,0.06,Weather View 32 v70,2013-03-23 07:00:00,
2013-03-22 23:05:00,27.5,24.1,30.01,NNE,22,0.0,1.0,87,0.00,,,0.06,Weather View 32 v70,2013-03-23 07:05:00,
2013-03-22 23:10:00,27.0,23.6,30.01,NNE,22,0.0,1.0,87,0.00,,,0.06,Weather View 32 v70,2013-03-23 07:10:00,
2013-03-22 23:15:00,26.8,23.4,30.01,NNE,22,0.0,1.0,87,0.00,,,0.06,Weather View 32 v70,2013-03-23 07:15:00,
2013-03-22 23:20:00,26.4,23.1,30.01,NNE,22,0.0,1.0,87,0.00,,,0.06,Weather View 32 v70,2013-03-23 07:20:00,
2013-03-22 23:25:00,26.1,22.7,30.02,NNE,22,0.0,0.0,87,0.00,,,0.06,Weather View 32 v70,2013-03-23 07:25:00,
2013-03-22 23:30:00,25.7,22.4,30.02,NNE,22,0.0,0.0,87,0.00,,,0.06,Weather View 32 v70,2013-03-23 07:30:00,
2013-03-22 23:35:00,25.7,22.4,30.02,NNE,22,0.0,0.0,87,0.00,,,0.06,Weather View 32 v70,2013-03-23 07:35:00,
2013-03-22 23:40:00,26.1,23.0,30.02,NNE,22,1.0,1.0,88,0.00,,,0.06,Weather View 32 v70,2013-03-23 07:40:00,
2013-03-22 23:45:00,25.7,22.6,30.01,NNE,22,1.0,1.0,88,0.00,,,0.06,Weather View 32 v70,2013-03-23 07:45:00,
2013-03-22 23:50:00,25.3,22.3,30.01,NNE,22,0.0,1.0,88,0.00,,,0.06,Weather View 32 v70,2013-03-23 07:50:00,
2013-03-22 23:55:00,24.6,21.6,30.01,NNE,22,0.0,1.0,88,0.00,,,0.06,Weather View 32 v70,2013-03-23 07:55:00,